| time (UTC) | temp F | wind direction | speed MPH | gust MPH | rain 1hr in | rain 24hr in | rain mn in | humidity % | barometer mb |
| 20260502184501 | 65 | 334 | 20.0 | 30.0 | 0.00 | 0.00 | 0.00 | 34 | 1015.3 |
| 20260502183101 | 65 | 339 | 22.0 | 30.0 | 0.00 | 0.00 | 0.00 | 34 | 1015.2 |
| 20260502181600 | 65 | 338 | 20.0 | 29.0 | 0.00 | 0.00 | 0.00 | 35 | 1015.4 |
| 20260502163050 | 62 | 358 | 17.0 | 25.0 | 0.00 | 0.00 | 0.00 | 38 | 1015.2 |
| 20260502161543 | 62 | 350 | 17.0 | 25.0 | 0.00 | 0.00 | 0.00 | 38 | 1015.2 |
| 20260502151555 | 58 | 318 | 9.0 | 15.0 | 0.00 | 0.00 | 0.00 | 48 | 1014.9 |
| 20260502123055 | 47 | 273 | 7.0 | 10.0 | 0.00 | 0.00 | 0.00 | 61 | 1014.3 |
| 20260502121551 | 48 | 267 | 9.0 | 12.0 | 0.00 | 0.00 | 0.00 | 59 | 1014.3 |
| 20260502114546 | 49 | 273 | 12.0 | 15.0 | 0.00 | 0.00 | 0.00 | 55 | 1014.2 |
| 20260502113050 | 50 | 268 | 13.0 | 16.0 | 0.00 | 0.00 | 0.00 | 53 | 1014.1 |
| 20260502111547 | 50 | 260 | 14.0 | 19.0 | 0.00 | 0.00 | 0.00 | 52 | 1013.7 |
| 20260502110044 | 49 | 245 | 13.0 | 16.0 | 0.00 | 0.00 | 0.00 | 53 | 1013.5 |
| 20260502104540 | 49 | 240 | 14.0 | 17.0 | 0.00 | 0.00 | 0.00 | 52 | 1013.6 |
| 20260502103038 | 50 | 230 | 14.0 | 16.0 | 0.00 | 0.00 | 0.00 | 51 | 1013.6 |
| 20260502101537 | 50 | 240 | 14.0 | 18.0 | 0.00 | 0.00 | 0.00 | 51 | 1013.7 |
| 20260502091530 | 52 | 217 | 18.0 | 22.0 | 0.00 | 0.00 | 0.00 | 45 | 1013.6 |
| 20260502071518 | 52 | 200 | 18.0 | 25.0 | 0.00 | 0.00 | 0.00 | 41 | 1014.1 |
| 20260502070035 | 53 | 204 | 18.0 | 23.0 | 0.00 | 0.00 | 0.00 | 40 | 1014.2 |
| 20260502064516 | 53 | 206 | 17.0 | 23.0 | 0.00 | 0.00 | 0.00 | 39 | 1014.3 |
| 20260502063031 | 52 | 193 | 18.0 | 23.0 | 0.00 | 0.00 | 0.00 | 39 | 1014.3 |
| 20260502061511 | 51 | 197 | 15.0 | 19.0 | 0.00 | 0.00 | 0.00 | 42 | 1014.6 |
| 20260502060008 | 51 | 197 | 15.0 | 19.0 | 0.00 | 0.00 | 0.00 | 42 | 1014.9 |
| 20260502054518 | 50 | 203 | 13.0 | 17.0 | 0.00 | 0.00 | 0.00 | 43 | 1014.9 |
| 20260502053005 | 51 | 196 | 14.0 | 19.0 | 0.00 | 0.00 | 0.00 | 42 | 1015.2 |
| 20260502051503 | 51 | 200 | 16.0 | 19.0 | 0.00 | 0.00 | 0.00 | 41 | 1015.3 |
| 20260502050002 | 52 | 197 | 14.0 | 18.0 | 0.00 | 0.00 | 0.00 | 41 | 1015.4 |
| 20260502044501 | 51 | 183 | 12.0 | 16.0 | 0.00 | 0.00 | 0.00 | 42 | 1015.5 |
| 20260502043059 | 50 | 216 | 6.0 | 11.0 | 0.00 | 0.00 | 0.00 | 42 | 1015.8 |
| 20260502041605 | 50 | 214 | 7.0 | 12.0 | 0.00 | 0.00 | 0.00 | 42 | 1016.0 |
| 20260502040057 | 51 | 193 | 11.0 | 14.0 | 0.00 | 0.00 | 0.00 | 42 | 1016.0 |
| 20260502034556 | 51 | 192 | 10.0 | 13.0 | 0.00 | 0.00 | 0.00 | 40 | 1016.2 |
| 20260502033101 | 51 | 206 | 7.0 | 10.0 | 0.00 | 0.00 | 0.00 | 40 | 1016.3 |
| 20260502031600 | 52 | 213 | 6.0 | 9.0 | 0.00 | 0.00 | 0.00 | 39 | 1016.5 |
| 20260502030056 | 52 | 217 | 6.0 | 9.0 | 0.00 | 0.00 | 0.00 | 38 | 1016.6 |
| 20260502024606 | 53 | 225 | 6.0 | 8.0 | 0.00 | 0.00 | 0.00 | 37 | 1016.6 |
| 20260502023107 | 56 | 227 | 5.0 | 8.0 | 0.00 | 0.00 | 0.00 | 34 | 1016.7 |
| 20260502021550 | 59 | 214 | 6.0 | 8.0 | 0.00 | 0.00 | 0.00 | 31 | 1016.7 |
| 20260502020053 | 61 | 202 | 6.0 | 9.0 | 0.00 | 0.00 | 0.00 | 29 | 1016.8 |
| 20260502014549 | 62 | 198 | 8.0 | 10.0 | 0.00 | 0.00 | 0.00 | 27 | 1016.8 |
| 20260502013047 | 64 | 196 | 9.0 | 13.0 | 0.00 | 0.00 | 0.00 | 25 | 1016.8 |
| 20260502011546 | 65 | 199 | 9.0 | 14.0 | 0.00 | 0.00 | 0.00 | 24 | 1017.0 |
| 20260502010043 | 66 | 200 | 13.0 | 16.0 | 0.00 | 0.00 | 0.00 | 22 | 1017.2 |
| 20260502004543 | 66 | 196 | 10.0 | 15.0 | 0.00 | 0.00 | 0.00 | 21 | 1017.3 |
| 20260502003039 | 66 | 218 | 8.0 | 18.0 | 0.00 | 0.00 | 0.00 | 21 | 1017.5 |
| 20260502001539 | 67 | 195 | 11.0 | 16.0 | 0.00 | 0.00 | 0.00 | 20 | 1017.7 |
| 20260502000059 | 66 | 185 | 10.0 | 18.0 | 0.00 | 0.00 | 0.00 | 20 | 1017.8 |
| 20260501234537 | 66 | 228 | 11.0 | 17.0 | 0.00 | 0.00 | 0.00 | 19 | 1017.8 |
| 20260501233034 | 67 | 193 | 11.0 | 19.0 | 0.00 | 0.00 | 0.00 | 20 | 1018.1 |
| 20260501231532 | 67 | 227 | 13.0 | 19.0 | 0.00 | 0.00 | 0.00 | 20 | 1018.0 |
| 20260501230033 | 67 | 240 | 11.0 | 17.0 | 0.00 | 0.00 | 0.00 | 20 | 1018.0 |
| 20260501224544 | 67 | 235 | 9.0 | 14.0 | 0.00 | 0.00 | 0.00 | 19 | 1017.9 |
| 20260501223024 | 66 | 205 | 13.0 | 16.0 | 0.00 | 0.00 | 0.00 | 20 | 1018.3 |
| 20260501221523 | 66 | 178 | 13.0 | 22.0 | 0.00 | 0.00 | 0.00 | 20 | 1018.5 |
| 20260501220029 | 65 | 187 | 10.0 | 19.0 | 0.00 | 0.00 | 0.00 | 20 | 1018.7 |
| 20260501214517 | 65 | 189 | 8.0 | 17.0 | 0.00 | 0.00 | 0.00 | 19 | 1018.8 |
| 20260501213014 | 65 | 196 | 13.0 | 18.0 | 0.00 | 0.00 | 0.00 | 20 | 1019.0 |
| 20260501211518 | 65 | 171 | 9.0 | 15.0 | 0.00 | 0.00 | 0.00 | 20 | 1019.3 |
| 20260501210010 | 65 | 192 | 8.0 | 24.0 | 0.00 | 0.00 | 0.00 | 21 | 1019.4 |
| 20260501204509 | 64 | 245 | 10.0 | 20.0 | 0.00 | 0.00 | 0.00 | 22 | 1019.5 |
| 20260501203004 | 64 | 189 | 11.0 | 20.0 | 0.00 | 0.00 | 0.00 | 21 | 1019.6 |
| 20260501201502 | 63 | 172 | 8.0 | 14.0 | 0.00 | 0.00 | 0.00 | 24 | 1019.7 |
| 20260501200059 | 63 | 160 | 6.0 | 19.0 | 0.00 | 0.00 | 0.00 | 24 | 1019.8 |
| 20260501194602 | 62 | 171 | 4.0 | 16.0 | 0.00 | 0.00 | 0.00 | 25 | 1019.9 |
| 20260501193057 | 63 | 162 | 8.0 | 19.0 | 0.00 | 0.00 | 0.00 | 25 | 1019.9 |
| 20260501191555 | 62 | 179 | 8.0 | 26.0 | 0.00 | 0.00 | 0.00 | 25 | 1020.3 |
| 20260501190052 | 61 | 153 | 7.0 | 17.0 | 0.00 | 0.00 | 0.00 | 26 | 1020.2 |
| 20260501184549 | 61 | 172 | 9.0 | 17.0 | 0.00 | 0.00 | 0.00 | 26 | 1020.4 |